map of DLM home
Great Circle Mapper logo
DLM - Airport
Location
City:  Dalaman, Turkey
ICAO / IATA:LTBS / DLM

Details
Type:Airport (Aerodrome, Airfield)
Use:Public/Civil, International (customs port of entry)
Latitude:3642'47"N (36.713056)
Longitude:2847'33"E (28.792500)
Datum:WGS 1984
Elevation:20 ft (6 m)
Variation:4.66E (WMM2015 magnetic declination)
0.09 annual change
Runways:1
Longest:9842 × 148 ft (3000 × 45 m), paved

Time
Time Zone:UTC+2 (DST+3)
Local Time:

Weather
METAR:LTBS 311020Z 21011KT 9999 FEW030 33/21 Q1004 NOSIG
TAF:LTBS 311040Z 3112/0112 22012KT 9999 SCT030
BECMG 3116/3118 VRB02KT CAVOK
BECMG 0106/0108 22012KT SCT030

Related Locations
Nearby:
Farthest:NTAV: 11522 mi / 18543 km
Raivavae, Tubuai Islands, Austral Islands, PF

Find:

   beyond  
but within

Other Information
Maps:
NOTAMs:
Links:
Sources:

  
flag of Turkey   

Sectional Chart

Flight Planning
at skyvector.com

Satellite Image

Google Maps Satellite view

 

Copyright © 2004-2015 Karl L. Swartz. All rights reserved.
The Great Circle Mapper name and logo are trademarks of the Great Circle Mapper.
All other trademarks mentioned herein belong to their respective owners.
Please see credits for attibutions and further copyright information.

  Follow gcmap on Facebook Follow gcmap on Twitter Follow gcmap on Google+

hCard Microformat

Geo Microformat